THORAD DELTA 1 DEB, 8173

Orbit data source: Space-Track

THORAD DELTA 1 DEB, 8173 is space debris in SSO originally from a launch on Fri, 15 Nov 1974 UTC launched from the Air Force Western Test Range (AFWTR). Debris objects in space refer to the collection of defunct objects orbiting the Earth. Examples of debris include non-operational satellites, rocket bodies, and fragments generated from explosions, collisions, or faulty payload assembly.

Loading next visibility...
Identifier
8173, 1974-089AP
Orbit
SSO
Country
Flag of USUS
Related business
Manufacturer
Unknown
Mission
Spacecraft
Bus & Motor
Unknown
Mass
Unknown
Launch date (UTC)
1974-11-15 (51 years ago)
Launch vehicle
Unknown
Launch site
Air Force Western Test Range (AFWTR)
Object type
Payload
Rocket body
Debris
Shape & HBR
Unknown shape, 0.1 m
Radar Cross Section
Small (<0.1 m²)

Expand to show TLE details & history
Last TLE update: 2 days ago

TLE from 2 days ago
0 THORAD DELTA 1 DEB
1 08173U 74089AP  26033.40274095  .00000057  00000-0  64878-3 0  9990
2 08173 101.9814  14.9658 0109388  23.2702 138.1715 12.51868786338128
Epoch: 2026-02-02T09:39Z
TLE epoch observation values (Epoch: 2026-02-02T09:39:56.818Z)
Latitude
17.32357°
Longitude
-78.84256°
Altitude
1,522.959 km
Speed
7.076 km/s
True Right ascension
13h 14m 58s
True Declination
17° 14' 08"
Sunlit
Object was in daylight at epoch
Visualization orbit readout
Latitude
Unknown
Longitude
Unknown
Altitude
Unknown
Speed
Unknown
Apparent Right ascension
Unknown
Apparent Declination
Unknown
Sunlit
N/A
Visualization observer readout
Local Sidereal Time
23:05:42
Azimuth
Unknown
Elevation
Unknown
Doppler factor
Unknown
Orbital elements
Apogee altitude
1,539.923 km
Perigee altitude
1,368.569 km
Semi-major axis
7,832.383 km
Eccentricity
0.01094
Inclination
101.9814°
RAAN
14.9658°
Arg. of periapsis
23.2702°
True anomaly
138.999°
Mean anomaly
138.1715°
Eccentric anomaly
138.58609°
Mean motion
3.13114 °/min
Orbital period
114.97 mins
BSTAR
0.00064878
Loading maneuver chart data...
Computing Atmospheric mass density...

Documentation

Showing up to 5 results
|